Location: LDNL
(36.4545°S, 141.6685°E)
Time: 13:21:37
(UTC+11:00)

Transit 4A - All Passes

Search period start: 28 January 2022 00:00
Search period end: 07 February 2022 00:00
Orbit: 863 x 981 km, 66.8° (Epoch: 27 January)

Date Brightness Start Highest point End Pass type
(mag) Time Alt. Az. Time Alt. Az. Time Alt. Az.
28 Jan - 04:06:38 10° S 04:10:42 19° SE 04:14:44 10° E visible
28 Jan - 05:51:45 10° SSW 05:57:33 68° WNW 06:03:19 10° NNE visible
28 Jan - 19:09:47 10° N 19:15:31 40° ENE 19:21:07 10° SE daylight
28 Jan - 20:56:26 10° WNW 21:01:53 32° SW 21:07:15 10° S daylight
29 Jan - 04:15:20 10° S 04:20:16 27° SE 04:25:10 10° ENE visible
29 Jan - 06:01:15 10° SW 06:06:44 43° WNW 06:12:11 10° N visible
29 Jan - 19:18:34 10° NNW 19:24:41 61° ENE 19:30:40 10° SE daylight
29 Jan - 21:06:43 10° W 21:11:25 22° SW 21:16:03 10° S visible
30 Jan - 04:24:15 10° SSW 04:29:45 40° ESE 04:35:11 10° NE visible
30 Jan - 06:11:00 10° SW 06:15:50 27° WNW 06:20:38 10° NNW visible
30 Jan - 17:46:23 10° ENE 17:48:24 12° ENE 17:50:24 10° E daylight
30 Jan - 19:27:41 10° NNW 19:33:55 89° SW 19:40:01 10° SSE daylight
30 Jan - 21:17:32 10° W 21:21:03 16° SW 21:24:34 10° S visible
31 Jan - 02:51:02 10° SE 02:51:32 10° SE 02:52:03 10° SE visible
31 Jan - 04:33:20 10° SSW 04:39:08 61° ESE 04:44:52 10° NE visible
31 Jan - 06:21:12 10° WSW 06:24:52 17° WNW 06:28:31 10° NW visible
31 Jan - 17:53:10 10° NNE 17:57:24 19° ENE 18:01:33 10° ESE daylight
31 Jan - 19:37:07 10° NW 19:43:13 60° WSW 19:49:13 10° SSE daylight
31 Jan - 21:29:31 10° SW 21:30:48 11° SW 21:32:04 10° SSW visible
01 Feb - 02:58:02 10° S 03:01:18 15° SE 03:04:31 10° E visible
01 Feb - 04:42:33 10° SSW 04:48:25 89° WNW 04:54:15 10° NNE visible
01 Feb - 18:01:11 10° NNE 18:06:27 30° ENE 18:11:39 10° SE daylight
01 Feb - 19:46:50 10° NW 19:52:37 40° WSW 19:58:17 10° SSE daylight
02 Feb - 03:06:30 10° S 03:10:55 22° SE 03:15:18 10° E visible
02 Feb - 04:51:55 10° SW 04:57:38 58° WNW 05:03:19 10° N visible
02 Feb - 18:09:42 10° N 18:15:35 46° ENE 18:21:20 10° SE daylight
02 Feb - 19:56:53 10° WNW 20:02:05 28° SW 20:07:12 10° S daylight
03 Feb - 03:15:18 10° S 03:20:27 31° SE 03:25:34 10° ENE visible
03 Feb - 05:01:29 10° SW 05:06:47 37° WNW 05:12:03 10° N visible
03 Feb - 18:18:37 10° NNW 18:24:47 71° ENE 18:30:48 10° SSE daylight
03 Feb - 20:07:20 10° W 20:11:39 20° SW 20:15:55 10° S daylight
04 Feb - 03:24:16 10° SSW 03:29:53 46° ESE 03:35:28 10° NE visible
04 Feb - 05:11:21 10° SW 05:15:51 23° WNW 05:20:21 10° NNW visible
04 Feb - 16:45:23 10° NE 16:48:25 14° ENE 16:51:25 10° ESE daylight
04 Feb - 18:27:50 10° NNW 18:34:02 78° WSW 18:40:06 10° SSE daylight
04 Feb - 20:18:23 10° WSW 20:21:19 14° SW 20:24:14 10° SSW daylight
05 Feb - 01:49:49 10° SSE 01:51:50 12° SE 01:53:49 10° ESE visible
05 Feb - 03:33:24 10° SSW 03:39:14 70° ESE 03:45:03 10° NE visible
05 Feb - 05:21:50 10° WSW 05:24:52 14° WNW 05:27:53 10° NW visible
05 Feb - 16:52:47 10° NNE 16:57:26 23° ENE 17:02:00 10° ESE daylight
05 Feb - 18:37:22 10° NW 18:43:22 52° WSW 18:49:16 10° SSE daylight
06 Feb - 01:57:48 10° S 02:01:32 17° SE 02:05:14 10° E visible
06 Feb - 03:42:40 10° SSW 03:48:31 77° WNW 03:54:19 10° NNE visible
06 Feb - 17:01:00 10° N 17:06:30 35° ENE 17:11:55 10° SE daylight
06 Feb - 18:47:12 10° WNW 18:52:47 35° SW 18:58:17 10° S daylight
